User: anonymous
Location: Unspecified
(0.0000°N, 0.0000°E)
Time: 06:36:42
(UTC+02:00)
Language:

Milstar 3 Cent rocket - Orbit

View from above orbital plane
View from above orbital plane
View from above satellite
View from above satellite

Ground track
Ground track

The orbit data is extracted from the following two-line orbital elements,

1 25725U 99023B   14240.41594278 0.00000100  00000-0  22018-3 0    05
2 25725  28.3251 307.0991 2390418 288.8542  71.1453  9.67180597    00
Epoch (UTC): 28 August 2014 09:58:57
Eccentricity: 0.2390418
inclination: 28.3251°
perigee height: 703 km
apogee height: 5151 km
right ascension of ascending node: 307.0991°
argument of perigee: 288.8542°
revolutions per day: 9.67180597
mean anomaly at epoch: 71.1453°
orbit number at epoch: 0

The dashed part of the orbit path shows where the satellite is in the earth's shadow,  

DLR